DLH7CG EDDH-EDDF

Flight info

Callsign DLH7CG
Flight time N/A
Altitude 30000
Route AMLUH2C/05 AMLUH M852 DENIX DCT RIMET/N0448F310 T157 KOKEB/N0401F230 T157 KERAX KERAX5A
Aircraft A321/M-SDE3FGHIRWY/LB1

Departure

Time 2026-05-06 13:33
Airport Hamburg Helmut Schmidt Airport (EDDH)

Arrival

Time N/A
Airport Frankfurt Main Airport (EDDF)
Time Latitude Longitude Altitude Speed Heading
2026-05-06 12:57 53.63035 10.00344 51 ft 0 kts 122°
2026-05-06 13:20 53.63036 10.00341 51 ft 2 kts 122°
2026-05-06 13:20 53.63044 10.00318 49 ft 2 kts 123°
2026-05-06 13:21 53.63054 10.00295 45 ft 2 kts 123°
2026-05-06 13:21 53.63062 10.00271 51 ft 2 kts 121°
2026-05-06 13:21 53.63071 10.00247 46 ft 2 kts 122°
2026-05-06 13:21 53.63080 10.00224 47 ft 2 kts 127°
2026-05-06 13:22 53.63090 10.00203 49 ft 2 kts 140°
2026-05-06 13:22 53.63105 10.00193 48 ft 2 kts 175°
2026-05-06 13:22 53.63122 10.00190 51 ft 2 kts 176°
2026-05-06 13:22 53.63128 10.00190 51 ft 0 kts 174°
2026-05-06 13:25 53.63126 10.00190 51 ft 1 kts 174°
2026-05-06 13:25 53.63108 10.00193 51 ft 4 kts 174°
2026-05-06 13:26 53.63080 10.00188 51 ft 5 kts 197°
2026-05-06 13:26 53.63048 10.00160 51 ft 6 kts 211°
2026-05-06 13:26 53.63024 10.00135 51 ft 7 kts 211°
2026-05-06 13:26 53.62982 10.00091 50 ft 8 kts 212°
2026-05-06 13:27 53.62932 10.00042 50 ft 9 kts 202°
2026-05-06 13:27 53.62872 10.00032 50 ft 9 kts 206°
2026-05-06 13:27 53.62815 9.99981 50 ft 10 kts 213°
2026-05-06 13:27 53.62753 9.99913 49 ft 12 kts 213°
2026-05-06 13:28 53.62676 9.99845 49 ft 13 kts 208°
2026-05-06 13:28 53.62635 9.99724 48 ft 12 kts 258°
2026-05-06 13:28 53.62628 9.99665 50 ft 12 kts 258°
2026-05-06 13:28 53.62617 9.99565 50 ft 13 kts 260°
2026-05-06 13:29 53.62605 9.99460 48 ft 13 kts 258°
2026-05-06 13:29 53.62587 9.99305 51 ft 14 kts 260°
2026-05-06 13:29 53.62569 9.99144 51 ft 14 kts 259°
2026-05-06 13:30 53.62549 9.98975 49 ft 15 kts 259°
2026-05-06 13:30 53.62529 9.98798 51 ft 16 kts 259°
2026-05-06 13:30 53.62508 9.98612 51 ft 16 kts 259°
2026-05-06 13:30 53.62486 9.98423 51 ft 17 kts 259°
2026-05-06 13:31 53.62463 9.98224 49 ft 18 kts 259°
2026-05-06 13:31 53.62440 9.98016 50 ft 18 kts 259°
2026-05-06 13:31 53.62438 9.97842 47 ft 13 kts 301°
2026-05-06 13:31 53.62494 9.97751 46 ft 7 kts 335°
2026-05-06 13:32 53.62522 9.97786 44 ft 0 kts 51°
2026-05-06 13:32 53.62523 9.97787 44 ft 3 kts 51°
2026-05-06 13:32 53.62687 9.98116 50 ft 73 kts 50°
2026-05-06 13:32 53.63159 9.99074 51 ft 136 kts 51°
2026-05-06 13:33 53.63791 10.00390 658 ft 143 kts 51°
2026-05-06 13:33 53.64424 10.01664 1433 ft 145 kts 50°
2026-05-06 13:33 53.65120 10.03030 1794 ft 161 kts 50°
2026-05-06 13:33 53.65892 10.04555 2094 ft 181 kts 51°
2026-05-06 13:34 53.66726 10.06242 2477 ft 193 kts 52°
2026-05-06 13:34 53.67610 10.08065 2793 ft 211 kts 52°
2026-05-06 13:34 53.68530 10.09970 3647 ft 205 kts 52°
2026-05-06 13:34 53.69432 10.11832 4405 ft 206 kts 52°
2026-05-06 13:35 53.70324 10.13741 5030 ft 209 kts 61°
2026-05-06 13:35 53.70734 10.16085 5659 ft 212 kts 90°
2026-05-06 13:35 53.70379 10.18479 6229 ft 222 kts 118°
2026-05-06 13:35 53.69222 10.20375 6432 ft 249 kts 153°
2026-05-06 13:36 53.67496 10.21293 6723 ft 269 kts 163°
2026-05-06 13:36 53.65661 10.22100 7278 ft 275 kts 163°
2026-05-06 13:36 53.63798 10.22906 7942 ft 278 kts 164°
2026-05-06 13:36 53.61914 10.23724 8617 ft 281 kts 163°
2026-05-06 13:37 53.60010 10.24564 9319 ft 285 kts 163°
2026-05-06 13:37 53.58054 10.25186 9941 ft 290 kts 178°
2026-05-06 13:37 53.55989 10.25154 10190 ft 307 kts 180°
2026-05-06 13:37 53.53815 10.25082 10316 ft 326 kts 180°
2026-05-06 13:38 53.51487 10.24995 10442 ft 344 kts 180°
2026-05-06 13:38 53.49041 10.24903 10698 ft 357 kts 180°
2026-05-06 13:38 53.46545 10.24806 11234 ft 360 kts 180°
2026-05-06 13:38 53.44031 10.24708 11858 ft 361 kts 180°
2026-05-06 13:39 53.41511 10.24623 12460 ft 363 kts 180°
2026-05-06 13:39 53.38980 10.24575 13032 ft 365 kts 180°
2026-05-06 13:39 53.36437 10.24552 13582 ft 367 kts 180°
2026-05-06 13:39 53.33879 10.24538 14064 ft 369 kts 180°
2026-05-06 13:40 53.31299 10.24526 14559 ft 371 kts 180°
2026-05-06 13:40 53.28744 10.24510 15032 ft 373 kts 180°
2026-05-06 13:40 53.26141 10.24488 15511 ft 376 kts 181°
2026-05-06 13:40 53.23515 10.24461 15989 ft 378 kts 181°
2026-05-06 13:41 53.20875 10.24427 16458 ft 380 kts 181°
2026-05-06 13:41 53.18223 10.24388 16913 ft 382 kts 181°
2026-05-06 13:41 53.15558 10.24349 17357 ft 384 kts 181°
2026-05-06 13:41 53.12873 10.24317 17802 ft 387 kts 181°
2026-05-06 13:42 53.10174 10.24285 18219 ft 389 kts 182°
2026-05-06 13:42 53.07458 10.24250 18587 ft 392 kts 181°
2026-05-06 13:42 53.04724 10.24213 18947 ft 394 kts 181°
2026-05-06 13:42 53.01971 10.24173 19321 ft 397 kts 181°
2026-05-06 13:43 52.99207 10.24130 19679 ft 399 kts 181°
2026-05-06 13:43 52.96453 10.24088 20046 ft 402 kts 181°
2026-05-06 13:43 52.93646 10.24052 20419 ft 405 kts 181°
2026-05-06 13:43 52.90825 10.24016 20793 ft 407 kts 181°
2026-05-06 13:44 52.87985 10.23978 21175 ft 409 kts 181°
2026-05-06 13:44 52.85125 10.23940 21591 ft 412 kts 181°
2026-05-06 13:44 52.82256 10.23903 21970 ft 414 kts 181°
2026-05-06 13:44 52.79369 10.23867 22336 ft 416 kts 181°
2026-05-06 13:45 52.76467 10.23829 22707 ft 418 kts 181°
2026-05-06 13:45 52.70622 10.23748 23423 ft 422 kts 180°
2026-05-06 13:45 52.67718 10.23710 23715 ft 424 kts 180°
2026-05-06 13:46 52.64759 10.23671 24024 ft 426 kts 180°
2026-05-06 13:46 52.61786 10.23632 24336 ft 428 kts 180°
2026-05-06 13:46 52.58798 10.23593 24642 ft 430 kts 181°
2026-05-06 13:46 52.55805 10.23551 24973 ft 432 kts 180°
2026-05-06 13:47 52.52793 10.23510 25297 ft 434 kts 181°
2026-05-06 13:47 52.49772 10.23470 25629 ft 435 kts 181°
2026-05-06 13:47 52.46744 10.23428 25960 ft 437 kts 181°
2026-05-06 13:47 52.43698 10.23384 26278 ft 438 kts 181°
2026-05-06 13:48 52.40644 10.23343 26566 ft 439 kts 181°
2026-05-06 13:48 52.37587 10.23304 26841 ft 441 kts 181°
2026-05-06 13:48 52.34552 10.23257 27116 ft 442 kts 181°
2026-05-06 13:48 52.31474 10.23208 27390 ft 443 kts 181°
2026-05-06 13:49 52.28397 10.23170 27641 ft 444 kts 181°
2026-05-06 13:49 52.25305 10.23135 27882 ft 445 kts 181°
2026-05-06 13:49 52.22209 10.23100 28203 ft 444 kts 181°
2026-05-06 13:49 52.19129 10.23057 28548 ft 442 kts 182°
2026-05-06 13:50 52.16054 10.23015 28890 ft 441 kts 182°
2026-05-06 13:50 52.12998 10.22977 29230 ft 439 kts 182°
2026-05-06 13:50 52.09944 10.22946 29593 ft 438 kts 182°
2026-05-06 13:50 52.06900 10.22911 29778 ft 437 kts 182°
2026-05-06 13:51 52.00834 10.22830 29785 ft 435 kts 182°
2026-05-06 13:51 51.94795 10.22745 29785 ft 434 kts 182°
2026-05-06 13:52 51.88808 10.22659 29781 ft 432 kts 182°
2026-05-06 13:52 51.82799 10.22577 29776 ft 431 kts 182°
2026-05-06 13:53 51.76803 10.22495 29778 ft 430 kts 182°
2026-05-06 13:53 51.70821 10.22428 29771 ft 429 kts 182°
2026-05-06 13:54 51.64874 10.22360 29459 ft 424 kts 183°
2026-05-06 13:54 51.61969 10.22319 29175 ft 422 kts 183°
2026-05-06 13:54 51.59039 10.22274 28818 ft 419 kts 183°
2026-05-06 13:55 51.56145 10.22233 28248 ft 413 kts 183°
2026-05-06 13:55 51.53292 10.22199 27709 ft 407 kts 183°
2026-05-06 13:55 51.50474 10.22168 27147 ft 403 kts 183°
2026-05-06 13:55 51.47675 10.22132 26592 ft 402 kts 183°
2026-05-06 13:56 51.44894 10.22095 26043 ft 398 kts 184°
2026-05-06 13:56 51.42107 10.22055 25596 ft 408 kts 184°
2026-05-06 13:56 51.39233 10.22006 25219 ft 416 kts 184°
2026-05-06 13:56 51.36342 10.21814 24855 ft 414 kts 190°
2026-05-06 13:57 51.33560 10.20763 24726 ft 409 kts 205°
2026-05-06 13:57 51.31102 10.18508 24761 ft 409 kts 213°
2026-05-06 13:57 51.28664 10.16169 24757 ft 410 kts 211°
2026-05-06 13:57 51.26176 10.14066 24760 ft 410 kts 208°
2026-05-06 13:58 51.23593 10.12122 24755 ft 411 kts 206°
2026-05-06 13:58 51.20972 10.10292 24752 ft 411 kts 205°
2026-05-06 13:58 51.18336 10.08502 24751 ft 412 kts 205°
2026-05-06 13:58 51.15702 10.06708 24550 ft 411 kts 205°
2026-05-06 13:59 51.13087 10.04896 24309 ft 410 kts 206°
2026-05-06 13:59 51.10483 10.03054 24071 ft 409 kts 206°